Time,TemperatureF,DewpointF,PressureIn,WindDirection,WindDirectionDegrees,WindSpeedMPH,WindSpeedGustMPH,Humidity,HourlyPrecipIn,Conditions,Clouds,dailyrainin,SoftwareType,DateUTC
2013-04-22 00:01:00,51.3,40.7,30.03,SSE,163,2.0,3.0,67,0.00,SCT,,0.00,WeatherDisplay:10.37,2013-04-22 05:01:00,
2013-04-22 00:06:00,51.4,40.8,30.03,SSE,163,2.0,4.0,67,0.00,CLR,,0.00,WeatherDisplay:10.37,2013-04-22 05:06:00,
2013-04-22 00:11:00,51.2,41.0,30.03,SSE,163,2.0,4.0,68,0.00,CLR,,0.00,WeatherDisplay:10.37,2013-04-22 05:11:00,
2013-04-22 00:16:00,51.1,41.2,30.03,SSE,163,2.0,4.0,69,0.00,CLR,,0.00,WeatherDisplay:10.37,2013-04-22 05:16:00,
2013-04-22 00:21:00,51.0,41.2,30.03,SSE,163,3.0,4.0,69,0.00,CLR,,0.00,WeatherDisplay:10.37,2013-04-22 05:21:00,
2013-04-22 00:26:00,50.9,41.0,30.03,SSE,163,3.0,4.0,69,0.00,CLR,,0.00,WeatherDisplay:10.37,2013-04-22 05:26:00,
2013-04-22 00:31:00,50.7,41.2,30.02,SSE,162,2.0,4.0,70,0.00,CLR,,0.00,WeatherDisplay:10.37,2013-04-22 05:31:00,
2013-04-22 00:36:00,50.5,41.0,30.02,SSE,161,3.0,4.0,70,0.00,CLR,,0.00,WeatherDisplay:10.37,2013-04-22 05:36:00,
2013-04-22 00:41:00,50.3,40.9,30.02,SSE,161,2.0,4.0,70,0.00,CLR,,0.00,WeatherDisplay:10.37,2013-04-22 05:41:00,
2013-04-22 00:46:00,50.2,40.8,30.02,SSE,161,3.0,4.0,70,0.00,CLR,,0.00,WeatherDisplay:10.37,2013-04-22 05:46:00,
2013-04-22 00:51:00,50.2,40.8,30.02,SSE,164,3.0,5.0,70,0.00,CLR,,0.00,WeatherDisplay:10.37,2013-04-22 05:51:00,
2013-04-22 00:56:00,50.7,40.9,30.02,SSE,166,5.0,6.0,69,0.00,CLR,,0.00,WeatherDisplay:10.37,2013-04-22 05:56:00,
2013-04-22 01:01:00,51.3,41.1,30.02,South,170,3.0,6.0,68,0.00,CLR,,0.00,WeatherDisplay:10.37,2013-04-22 06:01:00,
2013-04-22 01:11:00,51.2,40.6,30.02,South,171,3.0,5.0,67,0.00,CLR,,0.00,WeatherDisplay:10.37,2013-04-22 06:11:00,
2013-04-22 01:16:00,51.3,40.7,30.02,South,169,3.0,5.0,67,0.00,CLR,,0.00,WeatherDisplay:10.37,2013-04-22 06:16:00,
2013-04-22 01:21:00,51.3,40.3,30.02,South,169,5.0,6.0,66,0.00,CLR,,0.00,WeatherDisplay:10.37,2013-04-22 06:21:00,
2013-04-22 01:26:00,51.2,40.2,30.01,South,169,5.0,6.0,66,0.00,CLR,,0.00,WeatherDisplay:10.37,2013-04-22 06:26:00,
2013-04-22 01:31:00,51.3,40.3,30.01,South,171,5.0,6.0,66,0.00,CLR,,0.00,WeatherDisplay:10.37,2013-04-22 06:31:00,
2013-04-22 01:41:00,51.4,40.0,30.01,South,170,5.0,7.0,65,0.00,CLR,,0.00,WeatherDisplay:10.37,2013-04-22 06:41:00,
2013-04-22 01:46:00,51.5,39.7,30.01,South,170,5.0,8.0,64,0.00,CLR,,0.00,WeatherDisplay:10.37,2013-04-22 06:46:00,
2013-04-22 01:51:00,51.6,39.8,30.01,South,169,5.0,7.0,64,0.00,CLR,,0.00,WeatherDisplay:10.37,2013-04-22 06:51:00,
2013-04-22 02:01:00,51.5,39.7,30.00,SSE,167,6.0,7.0,64,0.00,CLR,,0.00,WeatherDisplay:10.37,2013-04-22 07:01:00,
2013-04-22 02:11:00,50.9,39.5,30.00,SSE,163,5.0,8.0,65,0.00,CLR,,0.00,WeatherDisplay:10.37,2013-04-22 07:11:00,
2013-04-22 02:16:00,51.0,39.6,30.00,SSE,167,5.0,7.0,65,0.00,CLR,,0.00,WeatherDisplay:10.37,2013-04-22 07:16:00,
2013-04-22 02:21:00,51.0,39.6,30.00,SSE,167,5.0,7.0,65,0.00,CLR,,0.00,WeatherDisplay:10.37,2013-04-22 07:21:00,
2013-04-22 02:26:00,50.8,39.5,30.00,SSE,166,5.0,7.0,65,0.00,CLR,,0.00,WeatherDisplay:10.37,2013-04-22 07:26:00,
2013-04-22 02:31:00,50.6,39.6,30.00,SSE,166,5.0,7.0,66,0.00,CLR,,0.00,WeatherDisplay:10.37,2013-04-22 07:31:00,
2013-04-22 02:41:00,50.2,39.3,29.99,SSE,163,6.0,9.0,66,0.00,CLR,,0.00,WeatherDisplay:10.37,2013-04-22 07:41:00,
2013-04-22 02:46:00,50.3,39.4,29.99,SSE,162,6.0,8.0,66,0.00,CLR,,0.00,WeatherDisplay:10.37,2013-04-22 07:46:00,
2013-04-22 02:51:00,50.5,39.1,29.99,SSE,164,6.0,9.0,65,0.00,CLR,,0.00,WeatherDisplay:10.37,2013-04-22 07:51:00,
2013-04-22 03:01:00,50.7,39.3,29.99,SSE,163,6.0,7.0,65,0.00,CLR,,0.00,WeatherDisplay:10.37,2013-04-22 08:01:00,
2013-04-22 03:11:00,50.1,39.1,29.98,SSE,160,6.0,9.0,66,0.00,CLR,,0.00,WeatherDisplay:10.37,2013-04-22 08:11:00,
2013-04-22 03:16:00,50.0,39.1,29.98,SSE,161,6.0,8.0,66,0.00,CLR,,0.00,WeatherDisplay:10.37,2013-04-22 08:16:00,
2013-04-22 03:21:00,50.0,39.0,29.98,SSE,161,6.0,9.0,66,0.00,CLR,,0.00,WeatherDisplay:10.37,2013-04-22 08:21:00,
2013-04-22 03:26:00,50.0,39.0,29.99,SSE,160,6.0,9.0,66,0.00,CLR,,0.00,WeatherDisplay:10.37,2013-04-22 08:26:00,
2013-04-22 03:31:00,50.0,39.1,29.99,SSE,165,7.0,10.0,66,0.00,CLR,,0.00,WeatherDisplay:10.37,2013-04-22 08:31:00,
2013-04-22 03:41:00,50.5,39.1,29.99,SSE,166,6.0,10.0,65,0.00,CLR,,0.00,WeatherDisplay:10.37,2013-04-22 08:41:00,
2013-04-22 03:46:00,50.2,38.9,29.99,SSE,168,5.0,9.0,65,0.00,CLR,,0.00,WeatherDisplay:10.37,2013-04-22 08:46:00,
2013-04-22 03:51:00,49.9,38.9,29.99,South,171,5.0,8.0,66,0.00,CLR,,0.00,WeatherDisplay:10.37,2013-04-22 08:51:00,
2013-04-22 03:56:00,49.9,38.9,30.00,South,171,3.0,10.0,66,0.00,CLR,,0.00,WeatherDisplay:10.37,2013-04-22 08:56:00,
2013-04-22 04:01:00,49.8,38.9,30.00,South,169,5.0,7.0,66,0.00,CLR,,0.00,WeatherDisplay:10.37,2013-04-22 09:01:00,
2013-04-22 04:11:00,49.2,38.7,30.00,South,169,5.0,7.0,67,0.00,CLR,,0.00,WeatherDisplay:10.37,2013-04-22 09:11:00,
2013-04-22 04:16:00,49.0,38.9,29.99,South,170,5.0,7.0,68,0.00,CLR,,0.00,WeatherDisplay:10.37,2013-04-22 09:16:00,
2013-04-22 04:21:00,48.7,38.6,29.99,South,171,5.0,7.0,68,0.00,CLR,,0.00,WeatherDisplay:10.37,2013-04-22 09:21:00,
2013-04-22 04:26:00,48.5,38.8,30.00,South,170,5.0,8.0,69,0.00,CLR,,0.00,WeatherDisplay:10.37,2013-04-22 09:26:00,
2013-04-22 04:31:00,48.5,38.8,30.00,South,169,6.0,9.0,69,0.00,CLR,,0.00,WeatherDisplay:10.37,2013-04-22 09:31:00,
2013-04-22 04:36:00,48.6,38.9,30.00,South,170,6.0,7.0,69,0.00,CLR,,0.00,WeatherDisplay:10.37,2013-04-22 09:36:00,
2013-04-22 04:41:00,48.8,39.0,29.99,South,172,5.0,8.0,69,0.00,CLR,,0.00,WeatherDisplay:10.37,2013-04-22 09:41:00,
2013-04-22 04:46:00,48.7,39.0,29.99,South,169,6.0,8.0,69,0.00,CLR,,0.00,WeatherDisplay:10.37,2013-04-22 09:46:00,
2013-04-22 04:51:00,48.8,38.7,29.99,SSE,168,6.0,8.0,68,0.00,CLR,,0.00,WeatherDisplay:10.37,2013-04-22 09:51:00,
2013-04-22 04:56:00,48.8,38.7,29.99,SSE,168,5.0,7.0,68,0.00,CLR,,0.00,WeatherDisplay:10.37,2013-04-22 09:56:00,
2013-04-22 05:01:00,48.6,38.9,30.00,SSE,168,5.0,8.0,69,0.00,CLR,,0.00,WeatherDisplay:10.37,2013-04-22 10:01:00,
2013-04-22 05:11:00,48.5,38.8,30.00,South,173,3.0,8.0,69,0.00,CLR,,0.00,WeatherDisplay:10.37,2013-04-22 10:11:00,
2013-04-22 05:16:00,48.5,38.8,30.00,South,172,5.0,7.0,69,0.00,CLR,,0.00,WeatherDisplay:10.37,2013-04-22 10:16:00,
2013-04-22 05:21:00,48.3,38.6,30.00,SSE,167,3.0,7.0,69,0.00,CLR,,0.00,WeatherDisplay:10.37,2013-04-22 10:21:00,
2013-04-22 05:26:00,48.2,38.5,30.00,SSE,164,5.0,9.0,69,0.00,CLR,,0.00,WeatherDisplay:10.37,2013-04-22 10:26:00,
2013-04-22 05:31:00,48.0,38.6,29.99,SSE,165,5.0,8.0,70,0.00,CLR,,0.00,WeatherDisplay:10.37,2013-04-22 10:31:00,
2013-04-22 05:41:00,47.0,38.4,29.99,South,169,6.0,7.0,72,0.00,CLR,,0.00,WeatherDisplay:10.37,2013-04-22 10:41:00,
2013-04-22 05:46:00,47.0,38.5,30.00,SSE,167,5.0,7.0,72,0.00,CLR,,0.00,WeatherDisplay:10.37,2013-04-22 10:46:00,
2013-04-22 05:51:00,47.3,38.7,29.99,South,173,5.0,8.0,72,0.00,CLR,,0.00,WeatherDisplay:10.37,2013-04-22 10:51:00,
2013-04-22 06:01:00,47.6,38.7,29.99,South,169,6.0,9.0,71,0.00,CLR,,0.00,WeatherDisplay:10.37,2013-04-22 11:01:00,
2013-04-22 06:11:00,47.6,38.6,29.99,South,170,5.0,7.0,71,0.00,CLR,,0.00,WeatherDisplay:10.37,2013-04-22 11:11:00,
2013-04-22 06:16:00,47.4,38.5,29.99,South,173,6.0,8.0,71,0.00,CLR,,0.00,WeatherDisplay:10.37,2013-04-22 11:16:00,
2013-04-22 06:21:00,47.2,38.3,29.99,South,175,5.0,7.0,71,0.00,CLR,,0.00,WeatherDisplay:10.37,2013-04-22 11:21:00,
2013-04-22 06:26:00,47.1,38.5,29.99,South,173,5.0,8.0,72,0.00,CLR,,0.00,WeatherDisplay:10.37,2013-04-22 11:26:00,
2013-04-22 06:31:00,47.0,38.4,29.99,South,170,5.0,8.0,72,0.00,CLR,,0.00,WeatherDisplay:10.37,2013-04-22 11:31:00,
2013-04-22 06:41:00,46.7,38.1,29.99,South,174,3.0,6.0,72,0.00,CLR,,0.00,WeatherDisplay:10.37,2013-04-22 11:41:00,
2013-04-22 06:46:00,46.7,38.5,29.99,South,171,5.0,7.0,73,0.00,CLR,,0.00,WeatherDisplay:10.37,2013-04-22 11:46:00,
2013-04-22 06:51:00,46.6,38.4,29.99,South,171,5.0,6.0,73,0.00,CLR,,0.00,WeatherDisplay:10.37,2013-04-22 11:51:00,
2013-04-22 06:56:00,46.6,38.4,29.99,South,173,3.0,6.0,73,0.00,CLR,,0.00,WeatherDisplay:10.37,2013-04-22 11:56:00,
2013-04-22 07:01:00,46.6,38.4,29.99,South,171,5.0,8.0,73,0.00,CLR,,0.00,WeatherDisplay:10.37,2013-04-22 12:01:00,
2013-04-22 07:11:00,46.7,38.5,30.00,South,170,3.0,7.0,73,0.00,CLR,,0.00,WeatherDisplay:10.37,2013-04-22 12:11:00,
2013-04-22 07:16:00,46.8,38.6,30.00,South,169,3.0,6.0,73,0.00,CLR,,0.00,WeatherDisplay:10.37,2013-04-22 12:16:00,
2013-04-22 07:21:00,46.9,38.7,29.99,SSE,165,5.0,7.0,73,0.00,CLR,,0.00,WeatherDisplay:10.37,2013-04-22 12:21:00,
2013-04-22 07:26:00,47.2,38.6,29.99,SSE,167,3.0,7.0,72,0.00,CLR,,0.00,WeatherDisplay:10.37,2013-04-22 12:26:00,
2013-04-22 07:31:00,47.5,38.9,29.99,South,176,5.0,7.0,72,0.00,CLR,,0.00,WeatherDisplay:10.37,2013-04-22 12:31:00,
2013-04-22 07:36:00,47.7,39.1,29.99,South,173,5.0,9.0,72,0.00,CLR,,0.00,WeatherDisplay:10.37,2013-04-22 12:36:00,
2013-04-22 07:41:00,48.0,39.4,29.99,SSE,168,5.0,8.0,72,0.00,CLR,,0.00,WeatherDisplay:10.37,2013-04-22 12:41:00,
2013-04-22 07:46:00,48.5,39.9,29.99,South,169,5.0,7.0,72,0.00,CLR,,0.00,WeatherDisplay:10.37,2013-04-22 12:46:00,
2013-04-22 07:51:00,49.5,40.1,29.99,South,171,5.0,9.0,70,0.00,CLR,,0.00,WeatherDisplay:10.37,2013-04-22 12:51:00,
2013-04-22 07:56:00,50.1,39.9,29.99,South,172,6.0,7.0,68,0.00,CLR,,0.00,WeatherDisplay:10.37,2013-04-22 12:56:00,
2013-04-22 08:01:00,50.3,40.1,29.99,South,175,5.0,8.0,68,0.00,CLR,,0.00,WeatherDisplay:10.37,2013-04-22 13:01:00,
2013-04-22 08:11:00,50.5,40.0,29.98,South,181,6.0,7.0,67,0.00,CLR,,0.00,WeatherDisplay:10.37,2013-04-22 13:11:00,
2013-04-22 08:16:00,50.7,40.1,29.98,South,186,6.0,9.0,67,0.00,CLR,,0.00,WeatherDisplay:10.37,2013-04-22 13:16:00,
2013-04-22 08:21:00,50.8,39.9,29.98,South,186,6.0,9.0,66,0.00,CLR,,0.00,WeatherDisplay:10.37,2013-04-22 13:21:00,
2013-04-22 08:26:00,51.1,40.1,29.99,South,184,6.0,12.0,66,0.00,CLR,,0.00,WeatherDisplay:10.37,2013-04-22 13:26:00,
2013-04-22 08:31:00,51.2,40.2,29.98,South,186,6.0,8.0,66,0.00,CLR,,0.00,WeatherDisplay:10.37,2013-04-22 13:31:00,
2013-04-22 08:41:00,51.7,40.3,29.98,South,181,7.0,12.0,65,0.00,CLR,,0.00,WeatherDisplay:10.37,2013-04-22 13:41:00,
2013-04-22 08:46:00,52.3,40.5,29.98,South,184,7.0,12.0,64,0.00,CLR,,0.00,WeatherDisplay:10.37,2013-04-22 13:46:00,
2013-04-22 08:51:00,52.9,41.0,29.98,South,186,7.0,12.0,64,0.00,CLR,,0.00,WeatherDisplay:10.37,2013-04-22 13:51:00,
2013-04-22 08:56:00,53.1,40.8,29.98,South,186,7.0,12.0,63,0.00,CLR,,0.00,WeatherDisplay:10.37,2013-04-22 13:56:00,
2013-04-22 09:01:00,53.2,40.1,29.98,South,186,8.0,12.0,61,0.00,CLR,,0.00,WeatherDisplay:10.37,2013-04-22 14:01:00,
2013-04-22 09:11:00,54.1,40.6,29.99,SSW,192,9.0,13.0,60,0.00,CLR,,0.00,WeatherDisplay:10.37,2013-04-22 14:11:00,
2013-04-22 09:16:00,54.5,40.9,29.99,South,188,9.0,14.0,60,0.00,CLR,,0.00,WeatherDisplay:10.37,2013-04-22 14:16:00,
2013-04-22 09:21:00,54.5,40.9,29.98,South,191,8.0,14.0,60,0.00,CLR,,0.00,WeatherDisplay:10.37,2013-04-22 14:21:00,
2013-04-22 09:26:00,54.5,40.9,29.98,SSW,194,6.0,12.0,60,0.00,CLR,,0.00,WeatherDisplay:10.37,2013-04-22 14:26:00,
2013-04-22 09:31:00,54.6,40.9,29.98,SSW,192,8.0,16.0,60,0.00,CLR,,0.00,WeatherDisplay:10.37,2013-04-22 14:31:00,
2013-04-22 09:41:00,54.8,41.2,29.99,SSW,193,6.0,12.0,60,0.00,CLR,,0.00,WeatherDisplay:10.37,2013-04-22 14:41:00,
2013-04-22 09:46:00,55.1,41.0,29.99,South,190,7.0,13.0,59,0.00,CLR,,0.00,WeatherDisplay:10.37,2013-04-22 14:46:00,
2013-04-22 09:51:00,55.4,41.7,29.98,South,188,7.0,12.0,60,0.00,CLR,,0.00,WeatherDisplay:10.37,2013-04-22 14:51:00,
2013-04-22 09:56:00,56.4,41.3,29.98,South,191,10.0,17.0,57,0.00,CLR,,0.00,WeatherDisplay:10.37,2013-04-22 14:56:00,
2013-04-22 10:01:00,57.1,41.5,29.98,South,191,8.0,15.0,56,0.00,CLR,,0.00,WeatherDisplay:10.37,2013-04-22 15:01:00,
2013-04-22 10:11:00,57.5,40.5,29.98,SSW,194,10.0,20.0,53,0.00,BKN,,0.00,WeatherDisplay:10.37,2013-04-22 15:11:00,
2013-04-22 10:16:00,57.0,41.4,29.97,SSW,193,7.0,18.0,56,0.00,BKN,,0.00,WeatherDisplay:10.37,2013-04-22 15:16:00,
2013-04-22 10:21:00,57.0,41.0,29.97,SSW,194,8.0,13.0,55,0.00,BKN,,0.00,WeatherDisplay:10.37,2013-04-22 15:21:00,
2013-04-22 10:26:00,57.1,41.5,29.98,SSW,195,8.0,15.0,56,0.00,BKN,,0.00,WeatherDisplay:10.37,2013-04-22 15:26:00,
2013-04-22 10:31:00,57.1,40.6,29.97,SSW,195,10.0,16.0,54,0.00,BKN,,0.00,WeatherDisplay:10.37,2013-04-22 15:31:00,
2013-04-22 10:41:00,57.3,40.8,29.97,SSW,196,10.0,17.0,54,0.00,BKN,,0.00,WeatherDisplay:10.37,2013-04-22 15:41:00,
2013-04-22 10:46:00,57.6,41.0,29.97,SSW,193,9.0,14.0,54,0.00,BKN,,0.00,WeatherDisplay:10.37,2013-04-22 15:46:00,
2013-04-22 10:51:00,57.6,41.0,29.97,SSW,194,8.0,13.0,54,0.00,BKN,,0.00,WeatherDisplay:10.37,2013-04-22 15:51:00,
2013-04-22 11:01:00,57.4,42.2,29.97,SSW,194,6.0,13.0,57,0.00,BKN,,0.00,WeatherDisplay:10.37,2013-04-22 16:01:00,
2013-04-22 11:11:00,57.6,42.0,29.97,South,185,7.0,9.0,56,0.00,CLR,,0.00,WeatherDisplay:10.37,2013-04-22 16:11:00,
2013-04-22 11:21:00,57.8,41.7,29.96,South,184,7.0,10.0,55,0.00,CLR,,0.00,WeatherDisplay:10.37,2013-04-22 16:21:00,
2013-04-22 11:26:00,57.8,42.6,29.96,South,188,6.0,10.0,57,0.00,CLR,,0.00,WeatherDisplay:10.37,2013-04-22 16:26:00,
2013-04-22 11:31:00,57.7,42.1,29.96,South,188,7.0,10.0,56,0.00,CLR,,0.00,WeatherDisplay:10.37,2013-04-22 16:31:00,
2013-04-22 11:36:00,57.6,42.0,29.96,South,183,6.0,10.0,56,0.00,CLR,,0.00,WeatherDisplay:10.37,2013-04-22 16:36:00,
2013-04-22 11:41:00,57.7,42.1,29.95,South,180,6.0,12.0,56,0.00,CLR,,0.00,WeatherDisplay:10.37,2013-04-22 16:41:00,
2013-04-22 11:46:00,57.8,42.2,29.95,South,174,5.0,12.0,56,0.00,CLR,,0.00,WeatherDisplay:10.37,2013-04-22 16:46:00,
2013-04-22 11:51:00,57.8,42.2,29.95,South,173,6.0,12.0,56,0.00,CLR,,0.00,WeatherDisplay:10.37,2013-04-22 16:51:00,
2013-04-22 11:56:00,57.8,42.2,29.95,South,172,6.0,9.0,56,0.00,CLR,,0.00,WeatherDisplay:10.37,2013-04-22 16:56:00,
2013-04-22 12:01:00,57.7,41.6,29.94,SSE,164,8.0,12.0,55,0.00,CLR,,0.00,WeatherDisplay:10.37,2013-04-22 17:01:00,
2013-04-22 12:11:00,57.9,42.3,29.94,South,172,7.0,10.0,56,0.00,OVC,,0.00,WeatherDisplay:10.37,2013-04-22 17:11:00,
2013-04-22 12:16:00,58.0,41.9,29.94,South,173,7.0,9.0,55,0.00,OVC,,0.00,WeatherDisplay:10.37,2013-04-22 17:16:00,
2013-04-22 12:21:00,58.1,42.4,29.94,South,170,6.0,9.0,56,0.00,OVC,,0.00,WeatherDisplay:10.37,2013-04-22 17:21:00,
2013-04-22 12:26:00,58.2,42.5,29.93,South,170,5.0,12.0,56,0.00,OVC,,0.00,WeatherDisplay:10.37,2013-04-22 17:26:00,
2013-04-22 12:31:00,58.2,42.5,29.93,South,169,6.0,9.0,56,0.00,OVC,,0.00,WeatherDisplay:10.37,2013-04-22 17:31:00,
2013-04-22 12:41:00,58.2,42.5,29.92,SSE,168,7.0,12.0,56,0.00,OVC,,0.00,WeatherDisplay:10.37,2013-04-22 17:41:00,
2013-04-22 12:46:00,58.2,42.1,29.91,SSE,166,7.0,9.0,55,0.00,OVC,,0.00,WeatherDisplay:10.37,2013-04-22 17:46:00,
2013-04-22 12:51:00,58.3,42.6,29.91,South,169,6.0,12.0,56,0.00,OVC,,0.00,WeatherDisplay:10.37,2013-04-22 17:51:00,
2013-04-22 13:01:00,58.8,42.7,29.90,SSE,165,6.0,12.0,55,0.00,OVC,,0.00,WeatherDisplay:10.37,2013-04-22 18:01:00,
2013-04-22 13:06:00,59.2,43.0,29.90,SSE,164,6.0,8.0,55,0.00,OVC,,0.00,WeatherDisplay:10.37,2013-04-22 18:06:00,
2013-04-22 13:11:00,59.2,42.5,29.89,SSE,163,6.0,12.0,54,0.00,OVC,,0.00,WeatherDisplay:10.37,2013-04-22 18:11:00,
2013-04-22 13:16:00,59.2,42.0,29.89,SSE,165,8.0,12.0,53,0.00,OVC,,0.00,WeatherDisplay:10.37,2013-04-22 18:16:00,
2013-04-22 13:21:00,59.1,42.9,29.89,SSE,167,6.0,9.0,55,0.00,OVC,,0.00,WeatherDisplay:10.37,2013-04-22 18:21:00,
2013-04-22 13:26:00,59.1,42.9,29.89,SSE,167,6.0,12.0,55,0.00,OVC,,0.00,WeatherDisplay:10.37,2013-04-22 18:26:00,
2013-04-22 13:31:00,59.0,42.8,29.88,SSE,158,7.0,12.0,55,0.00,OVC,,0.00,WeatherDisplay:10.37,2013-04-22 18:31:00,
2013-04-22 13:41:00,59.4,43.2,29.87,SSE,163,6.0,10.0,55,0.00,OVC,,0.00,WeatherDisplay:10.37,2013-04-22 18:41:00,
2013-04-22 13:46:00,59.6,43.4,29.87,SSE,155,6.0,10.0,55,0.00,OVC,,0.00,WeatherDisplay:10.37,2013-04-22 18:46:00,
2013-04-22 13:51:00,60.0,43.8,29.87,SSE,151,3.0,12.0,55,0.00,OVC,,0.00,WeatherDisplay:10.37,2013-04-22 18:51:00,
2013-04-22 14:01:00,60.4,42.6,29.87,SSE,160,7.0,12.0,52,0.00,OVC,,0.00,WeatherDisplay:10.37,2013-04-22 19:01:00,
2013-04-22 14:11:00,60.7,43.4,29.87,SSE,166,5.0,10.0,53,0.00,BKN,,0.00,WeatherDisplay:10.37,2013-04-22 19:11:00,
2013-04-22 14:16:00,61.1,43.8,29.86,South,169,5.0,12.0,53,0.00,BKN,,0.00,WeatherDisplay:10.37,2013-04-22 19:16:00,
2013-04-22 14:21:00,61.5,43.7,29.86,South,169,6.0,13.0,52,0.00,BKN,,0.00,WeatherDisplay:10.37,2013-04-22 19:21:00,
2013-04-22 14:26:00,61.9,43.5,29.86,SSE,161,7.0,10.0,51,0.00,BKN,,0.00,WeatherDisplay:10.37,2013-04-22 19:26:00,
2013-04-22 14:31:00,62.1,43.2,29.85,SE,140,6.0,12.0,50,0.00,BKN,,0.00,WeatherDisplay:10.37,2013-04-22 19:31:00,
2013-04-22 14:41:00,62.2,43.4,29.84,SE,131,6.0,9.0,50,0.00,BKN,,0.00,WeatherDisplay:10.37,2013-04-22 19:41:00,
2013-04-22 14:46:00,62.1,43.2,29.84,SE,145,6.0,9.0,50,0.00,BKN,,0.00,WeatherDisplay:10.37,2013-04-22 19:46:00,
2013-04-22 14:51:00,62.0,43.1,29.84,SSE,156,5.0,10.0,50,0.00,BKN,,0.00,WeatherDisplay:10.37,2013-04-22 19:51:00,
2013-04-22 14:56:00,62.1,44.2,29.83,SSE,161,5.0,8.0,52,0.00,BKN,,0.00,WeatherDisplay:10.37,2013-04-22 19:56:00,
2013-04-22 15:01:00,62.2,43.8,29.83,SSE,165,7.0,10.0,51,0.00,BKN,,0.00,WeatherDisplay:10.37,2013-04-22 20:01:00,
2013-04-22 15:06:00,62.4,41.9,29.84,South,169,9.0,13.0,47,0.00,BKN,,0.00,WeatherDisplay:10.37,2013-04-22 20:06:00,
2013-04-22 15:11:00,62.3,42.3,29.84,South,175,7.0,13.0,48,0.00,BKN,,0.00,WeatherDisplay:10.37,2013-04-22 20:11:00,
2013-04-22 15:16:00,62.2,42.2,29.84,South,173,8.0,12.0,48,0.00,BKN,,0.00,WeatherDisplay:10.37,2013-04-22 20:16:00,
2013-04-22 15:21:00,62.1,41.6,29.84,South,170,9.0,16.0,47,0.00,BKN,,0.00,WeatherDisplay:10.37,2013-04-22 20:21:00,
2013-04-22 15:26:00,61.9,42.5,29.83,South,169,6.0,10.0,49,0.00,BKN,,0.00,WeatherDisplay:10.37,2013-04-22 20:26:00,
2013-04-22 15:31:00,61.8,41.9,29.83,South,175,8.0,14.0,48,0.00,BKN,,0.00,WeatherDisplay:10.37,2013-04-22 20:31:00,
2013-04-22 15:41:00,61.1,43.9,29.82,SSE,165,7.0,12.0,53,0.00,BKN,,0.00,WeatherDisplay:10.37,2013-04-22 20:41:00,
2013-04-22 15:46:00,60.1,43.9,29.81,SSE,164,9.0,15.0,55,0.01,RA,,0.01,WeatherDisplay:10.37,2013-04-22 20:46:00,
2013-04-22 15:51:00,59.1,44.8,29.82,SSE,166,6.0,10.0,59,0.01,RA,,0.02,WeatherDisplay:10.37,2013-04-22 20:51:00,
2013-04-22 15:56:00,58.6,45.6,29.82,South,169,5.0,8.0,62,0.00,RA,,0.02,WeatherDisplay:10.37,2013-04-22 20:56:00,
2013-04-22 16:01:00,58.6,45.6,29.81,SSE,164,6.0,11.0,62,0.00,RA,,0.02,WeatherDisplay:10.37,2013-04-22 21:01:00,
2013-04-22 16:06:00,58.7,46.1,29.81,SSE,161,5.0,10.0,63,0.00,RA,,0.02,WeatherDisplay:10.37,2013-04-22 21:06:00,
2013-04-22 16:11:00,58.6,46.0,29.80,SE,146,3.0,7.0,63,0.00,OVC,,0.02,WeatherDisplay:10.37,2013-04-22 21:11:00,
2013-04-22 16:16:00,58.5,46.3,29.82,SSE,147,3.0,5.0,64,0.00,OVC,,0.02,WeatherDisplay:10.37,2013-04-22 21:16:00,
2013-04-22 16:21:00,58.4,45.8,29.83,SSE,163,2.0,5.0,63,0.00,OVC,,0.02,WeatherDisplay:10.37,2013-04-22 21:21:00,
2013-04-22 16:26:00,58.3,45.8,29.82,SSE,162,3.0,6.0,63,0.00,OVC,,0.02,WeatherDisplay:10.37,2013-04-22 21:26:00,
2013-04-22 16:31:00,58.2,46.0,29.82,SSE,167,5.0,7.0,64,0.00,OVC,,0.02,WeatherDisplay:10.37,2013-04-22 21:31:00,
2013-04-22 16:36:00,57.9,47.0,29.81,SSE,161,3.0,9.0,67,0.00,OVC,,0.02,WeatherDisplay:10.37,2013-04-22 21:36:00,
2013-04-22 16:41:00,57.5,47.4,29.82,SSE,164,1.0,4.0,69,0.00,OVC,,0.02,WeatherDisplay:10.37,2013-04-22 21:41:00,
2013-04-22 16:46:00,57.1,47.8,29.82,South,174,1.0,3.0,71,0.01,RA,,0.03,WeatherDisplay:10.37,2013-04-22 21:46:00,
2013-04-22 16:51:00,56.9,48.3,29.82,South,174,1.0,2.0,73,0.00,RA,,0.03,WeatherDisplay:10.37,2013-04-22 21:51:00,
2013-04-22 16:56:00,57.0,49.1,29.82,South,174,2.0,3.0,75,0.00,RA,,0.03,WeatherDisplay:10.37,2013-04-22 21:56:00,
2013-04-22 17:01:00,57.3,49.4,29.82,South,174,1.0,3.0,75,0.00,RA,,0.03,WeatherDisplay:10.37,2013-04-22 22:01:00,
2013-04-22 17:11:00,57.2,49.3,29.83,South,174,1.0,3.0,75,0.00,-RA,,0.03,WeatherDisplay:10.37,2013-04-22 22:11:00,
2013-04-22 17:16:00,57.1,48.9,29.83,South,174,1.0,3.0,74,0.00,-RA,,0.03,WeatherDisplay:10.37,2013-04-22 22:16:00,
2013-04-22 17:21:00,57.1,49.2,29.83,South,174,2.0,3.0,75,0.00,-RA,,0.03,WeatherDisplay:10.37,2013-04-22 22:21:00,
2013-04-22 17:26:00,57.0,49.5,29.82,South,174,0.0,2.0,76,0.00,-RA,,0.03,WeatherDisplay:10.37,2013-04-22 22:26:00,
2013-04-22 17:31:00,57.0,49.5,29.83,SSW,195,2.0,5.0,76,0.00,-RA,,0.03,WeatherDisplay:10.37,2013-04-22 22:31:00,
2013-04-22 17:41:00,56.9,49.4,29.83,SSW,211,1.0,2.0,76,0.00,-RA,,0.03,WeatherDisplay:10.37,2013-04-22 22:41:00,
2013-04-22 17:46:00,56.7,49.9,29.84,SSW,211,2.0,3.0,78,0.00,-RA,,0.03,WeatherDisplay:10.37,2013-04-22 22:46:00,
2013-04-22 17:51:00,56.4,49.7,29.84,SW,228,2.0,4.0,78,0.00,-RA,,0.03,WeatherDisplay:10.37,2013-04-22 22:51:00,
2013-04-22 17:56:00,56.2,49.7,29.84,WSW,242,1.0,3.0,79,0.00,-RA,,0.03,WeatherDisplay:10.37,2013-04-22 22:56:00,
2013-04-22 18:01:00,55.9,49.4,29.84,WSW,246,2.0,4.0,79,0.00,-RA,,0.03,WeatherDisplay:10.37,2013-04-22 23:01:00,
2013-04-22 18:11:00,55.4,49.3,29.83,WSW,247,1.0,3.0,80,0.00,OVC,,0.03,WeatherDisplay:10.37,2013-04-22 23:11:00,
2013-04-22 18:16:00,55.4,49.3,29.83,WSW,247,0.0,1.0,80,0.01,RA,,0.04,WeatherDisplay:10.37,2013-04-22 23:16:00,
2013-04-22 18:21:00,55.2,49.1,29.83,WSW,247,2.0,3.0,80,0.00,RA,,0.04,WeatherDisplay:10.37,2013-04-22 23:21:00,
2013-04-22 18:26:00,54.9,49.2,29.83,WNW,303,3.0,6.0,81,0.00,RA,,0.04,WeatherDisplay:10.37,2013-04-22 23:26:00,
2013-04-22 18:31:00,54.5,49.1,29.83,NNW,327,3.0,5.0,82,0.00,RA,,0.04,WeatherDisplay:10.37,2013-04-22 23:31:00,
2013-04-22 18:41:00,53.9,49.1,29.84,NNW,335,3.0,5.0,84,0.00,RA,,0.05,WeatherDisplay:10.37,2013-04-22 23:41:00,
2013-04-22 18:46:00,53.6,48.9,29.83,NNW,335,2.0,6.0,84,0.01,RA,,0.06,WeatherDisplay:10.37,2013-04-22 23:46:00,
2013-04-22 18:51:00,53.4,49.0,29.84,NNW,335,2.0,5.0,85,0.00,RA,,0.06,WeatherDisplay:10.37,2013-04-22 23:51:00,
2013-04-22 18:56:00,53.3,49.2,29.83,North,354,3.0,5.0,86,0.00,RA,,0.06,WeatherDisplay:10.37,2013-04-22 23:56:00,
2013-04-22 19:01:00,53.2,49.1,29.84,North,358,5.0,7.0,86,0.00,RA,,0.06,WeatherDisplay:10.37,2013-04-23 00:01:00,
2013-04-22 19:11:00,52.7,48.9,29.85,NNW,340,7.0,12.0,87,0.00,-RA,,0.06,WeatherDisplay:10.37,2013-04-23 00:11:00,
2013-04-22 19:16:00,52.5,48.7,29.85,NNW,348,6.0,10.0,87,0.00,-RA,,0.06,WeatherDisplay:10.37,2013-04-23 00:16:00,
2013-04-22 19:26:00,52.2,48.7,29.85,North,351,6.0,9.0,88,0.00,-RA,,0.06,WeatherDisplay:10.37,2013-04-23 00:26:00,
2013-04-22 19:31:00,52.1,48.9,29.85,NNW,344,7.0,12.0,89,0.00,-RA,,0.06,WeatherDisplay:10.37,2013-04-23 00:31:00,
2013-04-22 19:41:00,51.9,48.7,29.85,North,357,8.0,12.0,89,0.00,-RA,,0.06,WeatherDisplay:10.37,2013-04-23 00:41:00,
2013-04-22 19:46:00,51.8,48.6,29.86,North,355,7.0,12.0,89,0.00,-RA,,0.06,WeatherDisplay:10.37,2013-04-23 00:46:00,
2013-04-22 19:51:00,51.8,48.6,29.85,North,2,7.0,12.0,89,0.00,-RA,,0.06,WeatherDisplay:10.37,2013-04-23 00:51:00,
2013-04-22 19:56:00,51.7,48.6,29.85,NNE,14,6.0,12.0,89,0.00,-RA,,0.06,WeatherDisplay:10.37,2013-04-23 00:56:00,
2013-04-22 20:01:00,51.7,48.8,29.86,NNE,14,6.0,10.0,90,0.00,-RA,,0.06,WeatherDisplay:10.37,2013-04-23 01:01:00,
2013-04-22 20:06:00,51.6,48.7,29.86,North,8,7.0,10.0,90,0.00,OVC,,0.06,WeatherDisplay:10.37,2013-04-23 01:06:00,
2013-04-22 20:11:00,51.6,48.7,29.86,North,8,6.0,9.0,90,0.00,OVC,,0.06,WeatherDisplay:10.37,2013-04-23 01:11:00,
2013-04-22 20:16:00,51.6,48.7,29.86,North,360,7.0,10.0,90,0.00,OVC,,0.06,WeatherDisplay:10.37,2013-04-23 01:16:00,
2013-04-22 20:21:00,51.6,48.7,29.87,North,354,8.0,12.0,90,0.00,OVC,,0.06,WeatherDisplay:10.37,2013-04-23 01:21:00,
2013-04-22 20:26:00,51.5,48.6,29.87,North,350,8.0,12.0,90,0.00,OVC,,0.06,WeatherDisplay:10.37,2013-04-23 01:26:00,
2013-04-22 20:31:00,51.4,48.6,29.88,North,351,8.0,12.0,90,0.00,OVC,,0.06,WeatherDisplay:10.37,2013-04-23 01:31:00,
2013-04-22 20:36:00,51.4,48.5,29.88,North,350,9.0,14.0,90,0.00,OVC,,0.06,WeatherDisplay:10.37,2013-04-23 01:36:00,
2013-04-22 20:46:00,51.2,48.3,29.88,North,353,10.0,16.0,90,0.00,OVC,,0.06,WeatherDisplay:10.37,2013-04-23 01:46:00,
2013-04-22 20:51:00,51.1,48.2,29.89,North,351,12.0,16.0,90,0.00,OVC,,0.06,WeatherDisplay:10.37,2013-04-23 01:51:00,
2013-04-22 20:56:00,51.0,48.2,29.89,NNW,346,9.0,15.0,90,0.00,OVC,,0.06,WeatherDisplay:10.37,2013-04-23 01:56:00,
2013-04-22 21:01:00,51.0,48.1,29.90,NNW,347,8.0,14.0,90,0.00,OVC,,0.06,WeatherDisplay:10.37,2013-04-23 02:01:00,
2013-04-22 21:11:00,50.9,48.0,29.90,NNW,341,9.0,18.0,90,0.00,OVC,,0.06,WeatherDisplay:10.37,2013-04-23 02:11:00,
2013-04-22 21:16:00,50.9,48.0,29.91,NNW,339,9.0,15.0,90,0.00,OVC,,0.06,WeatherDisplay:10.37,2013-04-23 02:16:00,
2013-04-22 21:21:00,50.8,48.0,29.91,NNW,339,12.0,14.0,90,0.00,OVC,,0.06,WeatherDisplay:10.37,2013-04-23 02:21:00,
2013-04-22 21:26:00,50.8,48.0,29.91,NNW,338,10.0,16.0,90,0.00,OVC,,0.06,WeatherDisplay:10.37,2013-04-23 02:26:00,
2013-04-22 21:31:00,50.8,47.9,29.92,NNW,342,10.0,15.0,90,0.00,OVC,,0.06,WeatherDisplay:10.37,2013-04-23 02:31:00,
2013-04-22 21:41:00,47.7,44.4,29.92,NNW,327,12.0,18.0,88,0.00,OVC,,0.06,WeatherDisplay:10.37,2013-04-23 02:41:00,
2013-04-22 21:46:00,46.3,42.9,29.92,NW,321,10.0,17.0,88,0.00,OVC,,0.06,WeatherDisplay:10.37,2013-04-23 02:46:00,
2013-04-22 21:51:00,45.3,42.2,29.93,NW,322,10.0,18.0,89,0.00,OVC,,0.06,WeatherDisplay:10.37,2013-04-23 02:51:00,
2013-04-22 21:56:00,44.7,41.6,29.93,NW,324,12.0,20.0,89,0.00,OVC,,0.06,WeatherDisplay:10.37,2013-04-23 02:56:00,
2013-04-22 22:01:00,44.3,41.3,29.94,NW,324,15.0,21.0,89,0.00,OVC,,0.06,WeatherDisplay:10.37,2013-04-23 03:01:00,
2013-04-22 22:11:00,43.6,40.8,29.93,NNW,331,15.0,20.0,90,0.00,OVC,,0.06,WeatherDisplay:10.37,2013-04-23 03:11:00,
2013-04-22 22:16:00,43.3,40.6,29.92,NNW,330,16.0,22.0,90,0.00,OVC,,0.06,WeatherDisplay:10.37,2013-04-23 03:16:00,
2013-04-22 22:21:00,43.2,40.4,29.93,NNW,333,14.0,20.0,90,0.00,OVC,,0.06,WeatherDisplay:10.37,2013-04-23 03:21:00,
2013-04-22 22:26:00,43.0,40.3,29.93,NNW,327,10.0,20.0,90,0.00,OVC,,0.06,WeatherDisplay:10.37,2013-04-23 03:26:00,
2013-04-22 22:31:00,42.5,39.5,29.93,NNW,327,15.0,23.0,89,0.00,OVC,,0.06,WeatherDisplay:10.37,2013-04-23 03:31:00,
2013-04-22 22:41:00,42.1,39.4,29.94,NNW,332,13.0,16.0,90,0.00,OVC,,0.06,WeatherDisplay:10.37,2013-04-23 03:41:00,
2013-04-22 22:46:00,42.0,39.3,29.93,NNW,333,14.0,23.0,90,0.00,OVC,,0.06,WeatherDisplay:10.37,2013-04-23 03:46:00,
2013-04-22 22:51:00,41.8,38.8,29.94,NNW,333,13.0,18.0,89,0.00,OVC,,0.06,WeatherDisplay:10.37,2013-04-23 03:51:00,
2013-04-22 22:56:00,41.5,38.5,29.95,NNW,333,14.0,20.0,89,0.00,OVC,,0.06,WeatherDisplay:10.37,2013-04-23 03:56:00,
2013-04-22 23:01:00,41.2,37.9,29.96,NNW,329,15.0,21.0,88,0.00,OVC,,0.06,WeatherDisplay:10.37,2013-04-23 04:01:00,
2013-04-22 23:06:00,40.9,37.6,29.96,NNW,328,17.0,25.0,88,0.00,OVC,,0.06,WeatherDisplay:10.37,2013-04-23 04:06:00,
2013-04-22 23:11:00,40.8,37.5,29.96,NNW,328,16.0,25.0,88,0.00,OVC,,0.06,WeatherDisplay:10.37,2013-04-23 04:11:00,
2013-04-22 23:16:00,40.7,37.4,29.95,NNW,329,10.0,18.0,88,0.00,OVC,,0.06,WeatherDisplay:10.37,2013-04-23 04:16:00,
2013-04-22 23:21:00,40.1,36.9,29.95,NNW,331,13.0,16.0,88,0.00,OVC,,0.06,WeatherDisplay:10.37,2013-04-23 04:21:00,
2013-04-22 23:26:00,39.8,36.5,29.95,NNW,331,16.0,20.0,88,0.00,OVC,,0.06,WeatherDisplay:10.37,2013-04-23 04:26:00,
2013-04-22 23:31:00,39.7,36.4,29.94,NNW,338,13.0,18.0,88,0.00,OVC,,0.06,WeatherDisplay:10.37,2013-04-23 04:31:00,
2013-04-22 23:41:00,39.6,36.6,29.95,NNW,336,14.0,20.0,89,0.00,OVC,,0.06,WeatherDisplay:10.37,2013-04-23 04:41:00,
2013-04-22 23:46:00,39.6,36.6,29.96,NNW,335,13.0,20.0,89,0.00,OVC,,0.06,WeatherDisplay:10.37,2013-04-23 04:46:00,
2013-04-22 23:51:00,39.5,36.5,29.96,NNW,335,14.0,18.0,89,0.00,OVC,,0.06,WeatherDisplay:10.37,2013-04-23 04:51:00,
2013-04-22 23:56:00,39.4,36.1,29.97,NNW,333,16.0,20.0,88,0.00,OVC,,0.06,WeatherDisplay:10.37,2013-04-23 04:56:00,